Location: Pittsburgh
(40.4410°N, 79.9960°W)
Time: 17:10:26
(UTC-04:00)

ARIANE 6 FM1 Upper Stage - Pass Details

Date: 13 March 2026
Orbit: 524 x 604 km, 62.0° (Epoch: 11 April)

Event Time Altitude Azimuth Distance (km) Brightness Sun altitude
Exits shadow 05:10:51 40° 53° (NE) 812 3.8 -27.7°
Drops below altitude 10° 05:13:32 10° 41° (NE) 1,798 6.0 -27.2°
Sets 05:15:43 0° 39° (NE) 2,683 7.0 -26.8°
